Hourly Data Report for October 28, 2013

All times are specified in Local Standard Time (LST). Add 1 hour to adjust for Daylight Saving Time where and when it is observed.

GRISE FIORD CLIMATE
NUNAVUT

76°25'22.040" N
82°54'08.020" W
44.50 m
2402351
71971
NGC

Download Data

Hourly Data (October 2013)
Hourly Data Report for October 28, 2013
Temp Definition
°C
Dew Point Temp Definition
°C
Rel Hum Definition
%
Wind Dir Definition
10's deg

Wind Spd Definition
km/h
Visibility Definition
km
Stn Press Definition
kPa
Hmdx Definition


Wind Chill Definition


Weather Definition


TIME
00:00 -16.6 -20.6 71 13 9   100.31   -23 LegendNANA
01:00 -16.0 -20.7 67 14 9   100.38   -22 LegendNANA
02:00 -16.7 -20.4 73 12 7   100.43   -22 LegendNANA
03:00 -15.7 -19.9 70 14 6   100.47   -20 LegendNANA
04:00 -15.7 -19.7 71 12 9   100.51   -22 LegendNANA
05:00 -16.1 -19.4 76 13 6   100.55   -21 LegendNANA
06:00 -15.9 -19.5 74 12 7   100.59   -21 LegendNANA
07:00 -15.1 -19.0 72 13 11   100.64   -22 LegendNANA
08:00 -14.9 -18.7 73 13 6   100.66   -19 LegendNANA
09:00 -14.8 -18.6 73 14 7   100.69   -20 LegendNANA
10:00 -14.9 -18.2 76 12 2   100.71   -16 LegendNANA
11:00 -15.4 -17.7 83 3 4   100.72   -18 LegendNANA
12:00 -16.3 -18.8 81 4 6   100.73   -21 LegendNANA
13:00 -16.0 -18.1 84 14 4   100.74   -19 LegendNANA
14:00 -15.8 -18.1 82 3 4   100.74   -19 LegendNANA
15:00 -16.9 -18.8 85 12 6   100.76   -21 LegendNANA
16:00 -17.1 -19.3 83 2 7   100.78   -22 LegendNANA
17:00 -18.7 -21.3 80 4 4   100.81   -22 LegendNANA
18:00 -18.0 -19.9 85 6 6   100.81   -23 LegendNANA
19:00 -18.9 -21.1 83 5 7   100.81   -24 LegendNANA
20:00 -18.9 -21.3 81 2 6   100.81   -24 LegendNANA
21:00 -19.1 -21.4 82 10 7   100.78   -25 LegendNANA
22:00 -18.4 -20.9 81 4 4   100.77   -22 LegendNANA
23:00 -17.5 -19.8 82 5 6   100.77   -22 LegendNANA

Notes on Data Quality.

Legend

  • E = Estimated
  • M = Missing
  • NA = Not Available
  • ‡ = Partner data that is not subject to review by the National Climate Archives
Date modified: